This demonstration page uses our WeatherBlox Daily Observations layout. Learn more.

Left ArrowRight Arrow

39.12711, -84.51439

Hourly Observations for June 22, 2018

Temp ( °F °C ) Dew Point ( °F °C ) Humidity (%) Winds ( mph kmh ) Pressure ( in mb ) Visibility ( mi km ) Precip ( " mm )
12:53 am 00:53 Mostly Clear 71 21.7 71 21.7 100 100 SSW 3 6 29.72 1007 9 14 N/A
1:53 am 01:53 Partly Cloudy with Mist and Fog 70 21.1 70 21.1 100 100 N N/A 29.70 1006 6 10 N/A
2:03 am 02:03 Mostly Cloudy 70 21.1 70 21.1 100 100 E 3 6 29.71 1006 8 13 N/A
2:53 am 02:53 Cloudy 72 22.2 72 22.2 100 100 NNE 3 6 29.70 1006 8 13 N/A
3:20 am 03:20 Cloudy with Thunderstorms 72 22.2 72 22.2 100 100 N N/A 29.71 1006 7 11 N/A
3:37 am 03:37 Cloudy with Nearby Thunderstorms 72 22.2 72 22.2 100 100 N N/A 29.71 1006 4 6 0.02 0.51
3:53 am 03:53 Cloudy with Light Rain 72 22.2 72 22.2 100 100 W 3 6 29.70 1006 9 14 0.02 0.51
4:51 am 04:51 Cloudy with Light Rain 72 22 72 22 100 100 E 5 7 29.71 1006 7 11 0.01 0.25
4:53 am 04:53 Cloudy with Light Rain 71 21.7 71 21.7 100 100 ESE 3 6 29.68 1005 9 14 0.01 0.25
5:20 am 05:20 Mostly Cloudy 71 21.7 71 21.7 100 100 N N/A 29.71 1006 10 16 N/A
5:53 am 05:53 Cloudy 70 21.1 70 21.1 100 100 N N/A 29.70 1006 10 16 N/A
6:10 am 06:10 Mostly Cloudy 70 21.1 70 21.1 100 100 SW 3 6 29.71 1006 10 16 N/A
6:53 am 06:53 Mostly Cloudy 70 21.1 70 21.1 100 100 N N/A 29.70 1006 7 11 N/A
7:53 am 07:53 Cloudy 72 22.2 71 21.7 97 97 SSW 8 13 29.72 1006 7 11 N/A
8:53 am 08:53 Cloudy 73 22.8 71 21.7 94 94 S 8 13 29.72 1007 9 14 N/A
9:53 am 09:53 Mostly Cloudy 75 23.9 71 21.7 88 88 SSW 8 13 29.72 1007 10 16 N/A
10:53 am 10:53 Cloudy 76 24.4 70 21.1 82 82 SSW 9 15 29.72 1007 10 16 N/A
11:53 am 11:53 Mostly Cloudy 78 25.6 70 21.1 76 76 S 10 17 29.72 1006 10 16 N/A
12:18 pm 12:18 Partly Cloudy 80 26.7 70 21.1 71 71 SSW 8 13 29.74 1007 10 16 N/A
12:53 pm 12:53 Partly Cloudy 81 27.2 68 20 65 65 SSW 12 19 29.71 1006 10 16 N/A
1:53 pm 13:53 Partly Cloudy 79 26.1 66 18.9 65 65 SW 16 26 29.71 1006 10 16 N/A
2:53 pm 14:53 Mostly Sunny 76 24.4 69 20.6 79 79 SW 9 15 29.70 1006 10 16 N/A
3:53 pm 15:53 Mostly Sunny 79 26.1 70 21.1 74 74 S 10 17 29.67 1005 10 16 N/A
4:53 pm 16:53 Mostly Cloudy 76 24.4 67 19.4 74 74 S 13 20 29.68 1005 10 16 N/A
5:08 pm 17:08 Mostly Cloudy with Thunderstorms 76 24.4 67 19.4 74 74 S 7 11 29.68 1005 10 16 N/A
5:38 pm 17:38 Mostly Cloudy with Strong Thunderstorms 70 21.1 69 20.6 97 97 W 12 19 29.68 1005 3 5 0.18 4.57
5:53 pm 17:53 Mostly Cloudy with Thunderstorms 70 21.1 70 21.1 100 100 WSW 7 11 29.67 1005 3 5 0.22 5.59
6:27 pm 18:27 Mostly Cloudy with Nearby Thunderstorms 69 20.6 67 19.4 93 93 N N/A 29.65 1004 5 8 0.23 5.84
6:49 pm 18:49 Partly Cloudy 72 22 70 21 94 94 SSE 6 9 29.65 1004 10 16 0.23 5.84
6:53 pm 18:53 Partly Cloudy 71 21.7 69 20.6 94 94 SSE 6 9 29.65 1004 10 16 0.23 5.84
7:53 pm 19:53 Partly Cloudy 72 22.2 69 20.6 91 91 SSW 5 7 29.65 1004 10 16 N/A
8:22 pm 20:22 Partly Cloudy 72 22.2 69 20.6 91 91 S 7 11 29.68 1005 10 16 N/A
8:53 pm 20:53 Partly Cloudy 70 21.1 69 20.6 97 97 SSE 5 7 29.67 1005 10 16 N/A
9:53 pm 21:53 Clear 70 21.1 69 20.6 97 97 N N/A 29.68 1005 10 16 N/A
10:53 pm 22:53 Cloudy with Light Rain 70 21.1 69 20.6 97 97 N N/A 29.69 1005 6 10 0.01 0.25
10:57 pm 22:57 Cloudy with Light Rain 70 21.1 69 20.6 97 97 SW 3 6 29.71 1006 3 4 0.07 1.78
11:04 pm 23:04 Cloudy with Heavy Rain 69 20.6 69 20.6 100 100 SSE 6 9 29.71 1006 1 2 0.15 3.81
11:08 pm 23:08 Cloudy with Light Rain 70 21.1 69 20.6 97 97 S 6 9 29.71 1006 2 3 0.16 4.06
11:16 pm 23:16 Mostly Cloudy with Light Rain 70 21.1 69 20.6 97 97 S 6 9 29.71 1006 10 16 0.16 4.06
11:25 pm 23:25 Mostly Cloudy 69 20.6 69 20.6 100 100 S 6 9 29.71 1006 10 16 0.16 4.06
11:53 pm 23:53 Mostly Clear 69 20.6 69 20.6 100 100 S 7 11 29.70 1006 10 16 0.16 4.06

Powered by AerisWeather